Home   Weather   Jessheim   Past weeks

Flag for Norway Past Weather in Jessheim, Norway — Yesterday and Last 2 Weeks

Now
21 °F

Passing clouds.


Feels Like: 21 °F
Forecast: 24 / 36 °F
Wind: 1 mph from North

Location: Oslo Gardermoen Airport

Current Time: Jan 24, 2017 at 8:12:20 pm

Latest Report: Jan 24, 2017 at 7:20 pm


Visibility: 4 mi

Pressure: 30.12 "Hg

Humidity: 93%

Dew Point: 19 °F

Location of JessheimLocation

Past Weather in Jessheim — Graph

°F

Jessheim Temperature Yesterday

Maximum temperature yesterday: 28 °F (at 12:20 am)
Minimum temperature yesterday: 19 °F (at 10:50 pm)
Average temperature yesterday: 25 °F

High & Low Weather Summary for the Past Weeks

 TemperatureHumidityPressure
High48 °F (Jan 19, 1:20 pm)100% (Jan 9, 6:20 pm)30.39 "Hg (Jan 9, 6:20 pm)
Low12 °F (Jan 15, 10:50 pm)53% (Jan 19, 6:50 pm)28.50 "Hg (Jan 11, 4:20 pm)
Average28 °F85%29.83 "Hg
* Reported Jan 9 6:20 pm — Jan 24 6:50 pm, Jessheim, Weather by CustomWeather, © 2017

Note: Actual official high and low records may vary slightly from our data, if they occured in-between our weather recording intervals... More about our weather records

Advertising

Jessheim Weather History for the Previous 24 Hours

Scroll right to see more
 ConditionsComfort  
Time TempWeatherWind HumidityBarometerVisibility
6:50 pm
Tue, Jan 24
23 °FPassing clouds.6 mph93%30.12 "Hg4 mi
6:20 pm23 °FPassing clouds.6 mph100%30.12 "Hg5 mi
5:50 pm23 °FFog.6 mph93%30.12 "Hg5 mi
5:20 pm21 °FFog.2 mph93%30.12 "Hg5 mi
4:50 pm21 °FFog.2 mph93%30.12 "Hg4 mi
4:20 pm21 °FFog.2 mph93%30.12 "Hg4 mi
3:50 pm23 °FFog.1 mph93%30.12 "Hg4 mi
3:20 pm23 °FFog.No wind93%30.15 "Hg4 mi
2:50 pm23 °FFog.No wind93%30.15 "Hg4 mi
2:20 pm23 °FFog.No wind93%30.12 "Hg4 mi
1:50 pm23 °FFog.No wind93%30.12 "Hg4 mi
1:20 pm23 °FFog.No wind93%30.15 "Hg4 mi
12:50 pm23 °FFog.No wind93%30.15 "Hg4 mi
12:20 pm21 °FCold.No wind93%30.15 "Hg3 mi
11:50 am21 °FCold.No wind93%30.15 "Hg1 mi
11:20 am19 °FCold.No wind93%30.15 "Hg1 mi
10:50 am19 °FIce fog.No wind93%30.15 "Hg0 mi
10:20 am18 °FIce fog.No wind93%30.15 "Hg0 mi
9:50 am18 °FIce fog.No wind93%30.15 "Hg0 mi
9:20 am18 °FCold.No wind93%30.15 "Hg0 mi
8:50 am18 °FIce fog.No wind93%30.15 "Hg0 mi
8:20 am19 °FIce fog.No wind93%30.12 "Hg0 mi
7:50 am16 °FCold.No wind93%30.12 "Hg1 mi
7:20 am16 °FIce fog.No wind93%30.12 "Hg1 mi
6:50 am16 °FIce fog.1 mph93%30.12 "Hg1 mi
6:20 am18 °FIce fog.No wind93%30.12 "Hg0 mi
5:50 am18 °FIce fog.No wind93%30.09 "Hg0 mi
5:20 am16 °FIce fog.No wind93%30.09 "Hg1 mi
4:50 am16 °FIce fog.No wind93%30.09 "Hg0 mi
4:20 am16 °FIce fog.3 mph86%30.09 "Hg2 mi
3:50 am16 °FCold.2 mph93%30.09 "Hg4 mi
3:20 am16 °FCold.No wind93%30.09 "HgN/A
2:50 am16 °FPassing clouds.2 mph93%30.09 "HgN/A
2:20 am18 °FFog.1 mph86%30.09 "HgN/A
1:50 am16 °FPassing clouds.3 mph93%30.09 "HgN/A
1:20 am18 °FLight fog.2 mph86%30.09 "HgN/A
12:50 am18 °FFog.No wind93%30.09 "HgN/A
12:20 am18 °FFog.No wind93%30.07 "HgN/A
11:50 pm
Mon, Jan 23
19 °FPassing clouds.3 mph86%30.07 "HgN/A
11:20 pm19 °FFog.2 mph93%30.07 "HgN/A
10:50 pm19 °FClear.No wind93%30.07 "Hg10 mi
10:20 pm21 °FClear.2 mph86%30.07 "Hg10 mi
9:50 pm21 °FClear.No wind86%30.04 "Hg10 mi
9:20 pm21 °FPassing clouds.3 mph93%30.04 "HgN/A
8:50 pm21 °FSleet. Light fog.3 mph93%30.04 "HgN/A
8:20 pm21 °FLight fog.3 mph93%30.01 "HgN/A
Weather by CustomWeather, © 2017

See weather overviewHow to use our weather pages